Find Starlink 30537

NORAD ID: 57991 Int'l Des: 2023-153 Owner: SPXS Country: US Constellation: starlink operational
LEOCIRCULAR

現在のビュー

3D地球を読み込み中...

About Starlink 30537

Starlink 30537 (NORAD 57991) is a starlink constellation satellite (v2 mini) launched Oct 5, 2023 by SPXS of US. It operates in LEO, CIRCULAR orbit with a mass of 730.00 kg.

Starlink 30537について

説明を読み込み中...

次回通過

Passes for default location (London). Set your location on the main map for personalized predictions.

高度履歴

Loading altitude history...

軌道要素

1 57991U 23153A 26167.85654694 .00003083 00000-0 12149-3 0 9998
2 57991 42.9997 226.9332 0001585 273.7888 86.2782 15.27585554149961
Epoch: Jun 16, 2026 • Age: 31 hours

現在のステータス

高度 484.4 km
速度 7.62 km/s
衛星直下点 -9.37°S, 95.21°E
打ち上げ日 Oct 5, 2023
運用期間 2.6 years
タイプ internet

技術仕様

分類 Payload
質量 730.00 kg
乾燥質量 700.00 kg
総質量 730.00 kg
長さ 0.30 m
直径 4.10 m
スパン 29.00 m
形状 Box + pan
製造者 SPXS
バスタイプ Starlink V2M
フェーズステータス In Orbit
所有者/国 SPXS/US

Most Searched